Regional Weather Roundup
Issued by NWS

Home | Current Version | Previous Version | Text Only | Print | Product List | Glossary Off
Versions: 1 2 3 4 5 6 7 8 9 10 11 12 13 14 15 16 17 18 19 20 21 22 23 24 25 26 27

000
ASUS45 KBOU 180007
RWRCO

WEATHER ROUNDUP FOR COLORADO
NATIONAL WEATHER SERVICE DENVER/BOULDER CO
500 PM MST TUE JAN 17 2017

NOTE: "FAIR" INDICATES FEW OR NO CLOUDS BELOW 12000 FEET WITH NO
SIGNIFICANT WEATHER AND/OR OBSTRUCTIONS TO VISIBILITY.

COZ001>005-013-030-031-180100-
...NORTHWEST COLORADO...

CITY           SKY/WX    TMP DP  RH WIND       PRES   REMARKS
CRAIG          MOCLDY    16  12  84 NE5       30.21S WCI   9
HAYDEN         CLOUDY    16  10  79 SW3       30.19S VSB<1/4
MEEKER         FAIR      29  21  72 SW5       30.17R WCI  24
MOUNT WERNER   NOT AVBL
STEAMBOAT SPGS FAIR      22  16  78 CALM      30.16S
WALDEN           N/A    N/A N/A N/A CALM      30.17S VSB<1/4
$$

COZ006>008-011-180100-
...WEST CENTRAL VALLEYS...

CITY           SKY/WX    TMP DP  RH WIND       PRES   REMARKS
GRAND JUNCTION FAIR      43  28  55 W7        30.15F
MONTROSE       CLOUDY    40  29  64 CALM      30.17S
EAGLE          CLEAR     32  25  74 W7        30.18R WCI  26
RIFLE          FAIR      39  26  59 SE3       30.16R
DELTA          CLOUDY    45  32  59 CALM      30.17S
NUCLA          MOCLDY    41  30  65 NW5       30.18R
$$

COZ017>023-064>068-180100-
...SOUTHWEST COLORADO...

CITY           SKY/WX    TMP DP  RH WIND       PRES   REMARKS
DURANGO        CLOUDY    38  31  76 SW9       30.11S
CORTEZ         CLOUDY    42  34  73 MISG      30.13R
PAGOSA SPRINGS MOCLDY    37  30  77 CALM      30.12S
TELLURIDE      CLOUDY    31  25  79 W7        30.16R WCI  24
WOLF CREEK PAS   N/A     21  21 100 CALM      30.18F
$$

COZ009-010-012-014-032>034-037-058>063-180100-
...CENTRAL COLORADO...

CITY           SKY/WX    TMP DP  RH WIND       PRES   REMARKS
ASPEN          FAIR      30  22  72 VRB3      30.14R
BUENA VISTA    FAIR      19  14  82 W5        30.07S WCI  12
COPPER MTN     FAIR      23  16  74 MISG      30.17R
BERTHOUD PASS  NOT AVBL
COTTONWOOD PAS FAIR      34  18  51 W10       30.10S WCI  26
GUNNISON       FAIR      22  20  92 S3        30.15S
KREMMLING      FAIR      32  23  69 CALM      30.18R
LEADVILLE      FAIR      26   9  48 N14G21    30.10R WCI  14
MONARCH PASS   CLOUDY    19  18  93 MISG      30.24R
SALIDA         FAIR      37  25  63 W9G16     30.14R
SUNLIGHT       FAIR      21  19  93 SW3       30.20S FOG
WILKERSON PASS FAIR      27   9  46 N13       30.14S WCI  16
$$

COZ069>075-180100-
...SAN LUIS VALLEY/SANGRE DE CRISTO MOUNTAINS...

CITY           SKY/WX    TMP DP  RH WIND       PRES   REMARKS
ALAMOSA        CLOUDY    31  27  85 CALM      30.11S
LA VETA PASS   FAIR      23  21  93 NE22G28   30.09S WCI   8
SAGUACHE       FAIR      28  27  93 N5        30.12F WCI  23
$$

COZ035-036-038>040-180100-
...NORTHERN COLORADO FRONT RANGE...

CITY           SKY/WX    TMP DP  RH WIND       PRES   REMARKS
DENVER INTL AP FAIR      38  27  64 E6        30.01R
DMNS CITY PARK   N/A     39  26  58 NE2       30.01S
AURORA         PTCLDY    40  26  58 E3        30.02R
FRONT RANGE AP PTCLDY    37  28  70 N3        30.02R
ERIE MUNI ARPT FAIR      34  25  69 CALM      30.02R
BOULDER MUN AP FAIR      39  27  60 CALM      30.02R
CENTENNIAL     FAIR      42  11  28 N3        30.01R
BROOMFIELD     CLEAR     41  27  56 CALM      30.02R
FORT COLLINS   FAIR      39  27  60 S6        30.02S
LONGMONT       FAIR      35  26  70 SW3       30.04R
$$

COZ041-046-047-076>085-087-088-180100-
...PIKES PEAK/PALMER DIVIDE AND SOUTHERN FOOTHILLS...

CITY           SKY/WX    TMP DP  RH WIND       PRES   REMARKS
COLO. SPRINGS  FAIR      39  27  62 S3        30.03R
A. F. ACADEMY  FAIR      41  25  52 SW3       30.02R
SCHRIEVER AFB  NOT AVBL
ELLICOTT       FAIR     N/A N/A N/A CALM      30.02R
FALCON         FAIR      37  26  63 CALM      30.04R
FORT CARSON    CLEAR     39  32  75 SE2       30.03R
LIMON          FAIR      36  30  79 CALM      30.02R
MONUMENT HILL  FAIR      34  14  44 E3        30.05R
TRINIDAD       FAIR      31  25  78 W7        30.02S WCI  24
$$

COZ042>045-048>051-090-091-180100-
...NORTHEAST COLORADO...

CITY           SKY/WX    TMP DP  RH WIND       PRES   REMARKS
GREELEY ARPT   FAIR      41  27  57 S3        30.02S
AKRON          FAIR      32  26  78 W7        30.01S WCI  26
BURLINGTON     FAIR      36  31  82 SW8       30.04S
WRAY           FAIR      37  32  81 SW3       30.03S
STERLING       FAIR      34  30  86 SW7       30.00S WCI  28
HOLYOKE        FAIR      36  30  80 S10       30.01S
FORT MORGAN    FAIR      35  26  69 SW5       30.02S WCI  31
$$

COZ086-089-092>099-180100-
...SOUTHEAST COLORADO...

CITY           SKY/WX    TMP DP  RH WIND       PRES   REMARKS
PUEBLO         FOG       33  31  92 NE5       30.02S VSB 3/4 WCI  29
LA JUNTA       FAIR      28  25  88 W6        30.02F WCI  22
LAMAR          FAIR      34  30  85 W3        30.01F
SPRINGFIELD      N/A     39  32  76 S5        30.01S
$$




USA.gov is the U.S. government's official web portal to all federal, state and local government web resources and services.